TimePST,TemperatureF,Dew PointF,Humidity,Sea Level PressureIn,VisibilityMPH,Wind Direction,Wind SpeedMPH,Gust SpeedMPH,PrecipitationIn,Events,Conditions,WindDirDegrees,DateUTC
12:53 AM,42.1,36.0,79,29.75,10.0,SE,6.9,-,0.00,Rain,Light Rain,130,2013-02-19 08:53:00
1:15 AM,41.0,35.6,81,29.75,9.0,ESE,6.9,-,0.01,Rain,Light Rain,120,2013-02-19 09:15:00
1:53 AM,41.0,37.0,86,29.73,10.0,East,8.1,-,0.03,,Overcast,90,2013-02-19 09:53:00
2:40 AM,41.0,37.4,87,29.72,10.0,ESE,6.9,-,N/A,,Overcast,110,2013-02-19 10:40:00
2:53 AM,41.0,37.0,86,29.72,10.0,ESE,9.2,-,0.00,,Light Drizzle,110,2013-02-19 10:53:00
3:31 AM,39.2,35.6,87,29.72,10.0,SE,3.5,-,0.00,,Light Drizzle,130,2013-02-19 11:31:00
3:53 AM,39.9,36.0,86,29.73,10.0,ESE,5.8,-,0.01,,Light Drizzle,110,2013-02-19 11:53:00
4:53 AM,39.9,37.9,93,29.72,10.0,Calm,Calm,-,0.04,,Light Drizzle,0,2013-02-19 12:53:00
5:37 AM,39.2,37.4,93,29.73,10.0,East,6.9,-,0.01,Rain,Light Rain,90,2013-02-19 13:37:00
5:53 AM,39.9,37.0,89,29.73,10.0,East,8.1,-,0.01,Rain,Light Rain,90,2013-02-19 13:53:00
6:53 AM,39.0,35.1,86,29.73,10.0,East,8.1,-,0.00,,Mostly Cloudy,90,2013-02-19 14:53:00
7:53 AM,39.0,35.1,86,29.75,10.0,Calm,Calm,-,N/A,,Mostly Cloudy,0,2013-02-19 15:53:00
8:53 AM,42.1,37.0,82,29.76,10.0,WNW,5.8,-,N/A,,Scattered Clouds,290,2013-02-19 16:53:00
10:53 AM,46.0,39.9,79,29.78,10.0,West,9.2,-,N/A,,Scattered Clouds,280,2013-02-19 18:53:00
11:53 AM,48.9,39.0,69,29.78,10.0,West,10.4,-,N/A,,Scattered Clouds,280,2013-02-19 19:53:00
12:53 PM,51.1,35.1,54,29.79,10.0,WNW,10.4,-,N/A,,Scattered Clouds,290,2013-02-19 20:53:00
1:53 PM,52.0,35.1,53,29.80,10.0,WNW,11.5,-,N/A,,Scattered Clouds,300,2013-02-19 21:53:00
2:53 PM,54.0,33.1,45,29.81,10.0,WNW,9.2,-,N/A,,Scattered Clouds,300,2013-02-19 22:53:00
4:53 PM,48.9,33.1,54,29.84,10.0,NE,5.8,-,N/A,,Mostly Cloudy,40,2013-02-20 00:53:00
5:53 PM,48.0,35.1,61,29.86,10.0,NNE,5.8,-,N/A,,Scattered Clouds,20,2013-02-20 01:53:00
6:53 PM,42.1,34.0,73,29.89,10.0,SSW,3.5,-,N/A,,Partly Cloudy,210,2013-02-20 02:53:00
7:53 PM,42.1,34.0,73,29.92,10.0,West,3.5,-,N/A,,Partly Cloudy,280,2013-02-20 03:53:00
8:53 PM,39.9,34.0,79,29.94,10.0,Calm,Calm,-,N/A,,Scattered Clouds,0,2013-02-20 04:53:00
9:53 PM,42.1,36.0,79,29.97,10.0,WNW,5.8,-,N/A,,Mostly Cloudy,290,2013-02-20 05:53:00
10:53 PM,39.9,35.1,83,30.00,10.0,Calm,Calm,-,N/A,,Scattered Clouds,0,2013-02-20 06:53:00
11:53 PM,39.0,35.1,86,30.01,10.0,Calm,Calm,-,N/A,,Partly Cloudy,0,2013-02-20 07:53:00